weather.gov     
National Weather Service

Regional Weather Roundup
NWS Homepage
This page is being discontinued on March 12, 2014.
The same data is available at this site. Please update your bookmarks.
Thank you, and we apologize for the inconvenience.
Please send an email to SR-SRH.Webmaster@noaa.gov with any concerns.


Current Version
Previous Version:    01  02  03  04  05  06  07  08  09  10  11  12  13  14  15  16  17  18  19  20  21  22  23  24  25  26  27  28  29  30  
   31  32  33  34  35  36  37  38  39  40  41  42  43  44  45  46  47  48  49  50  51  52  53  54  55  56  57  58  59  60  
[Printable]
589
NZUS01 KOTX 191600
RWROTX
EASTERN WASHINGTON/NORTHERN IDAHO ROUNDUP
NATIONAL WEATHER SERVICE, SPOKANE WA
900 AM PDT FRI SEP 19 2014

Note: "fair" indicated few or no clouds below 12,000 feet with no
significant weather and/or obstructions to visibility.

...NORTHEAST WASHINGTON AND NORTHERN IDAHO PANHANDLE...

CITY           SKY/WX    TMP DP  RH WIND       PRES   REMARKS
SPOKANE INTL   MOSUNNY   59  50  72 S15       30.03R
SPOKANE DOWNTO MOSUNNY   62  49  62 SW8       30.04R
COEUR D ALENE  PTSUNNY   63  48  59 S15       30.04R
DEER PARK      PTSUNNY   59  50  72 S12       30.03R

...SOUTHEAST WASHINGTON AND SOUTHERN IDAHO PANHANDLE...

CITY           SKY/WX    TMP DP  RH WIND       PRES   REMARKS
WALLA WALLA    SUNNY     68  51  54 SW13      30.07R
PULLMAN/MOSCOW SUNNY     61  48  62 VRB3      30.09R
LOWELL           N/A     63  55  75 CALM      30.06R

...COLUMBIA BASIN...

CITY           SKY/WX    TMP DP  RH WIND       PRES   REMARKS
EPHRATA        SUNNY     68  50  52 SW3       29.98R
MOSES LAKE     MOSUNNY   65  53  65 SE8       30.00R
TRI CITIES     SUNNY     69  54  58 S14       30.02R
HERMISTON      SUNNY     69  52  54 W10       30.04R
PENDLETON      SUNNY     65  50  58 S6        30.06R

...EAST SLOPES CASCADES...

CITY           SKY/WX    TMP DP  RH WIND       PRES   REMARKS
THE DALLES     SUNNY     70  55  59 W7        30.03S
YAKIMA         SUNNY     65  52  62 SE5       30.03R
ELLENSBURG     MOSUNNY   68  50  52 NW18G29   30.02R
WENATCHEE      MOSUNNY   71  49  45 NW10      30.00R
OMAK             N/A     66  48  52 VRB3      29.97R

...SOUTHERN BRITISH COLUMBIA...

CITY           SKY/WX    TMP DP  RH WIND       PRES   REMARKS

...WESTERN MONTANA...

CITY           SKY/WX    TMP DP  RH WIND       PRES   REMARKS
MISSOULA       CLOUDY    65  47  52 W8        30.04R

...NEIGHBORING CITIES...

CITY           SKY/WX    TMP DP  RH WIND       PRES   REMARKS
SEATTLE        CLOUDY    64  57  78 S5        30.09R




U.S. Dept. of Commerce
NOAA National Weather Service
1325 East West Highway
Silver Spring, MD 20910
E-mail: w-nws.webmaster@noaa.gov
Page last modified: May 16, 2007
NATIONAL WEATHER SERVICE: for Safety, for Work, for Fun - FOR LIFE